Starlink 1585

operational
NORAD ID: 46117 Int'l Des: 2020-057 Owner: SPXS Country: US Constellation: starlink
LEOCIRCULARSTARLINK_TYPE

Starlink 1585について

説明を読み込み中...

リアルタイム位置

3D地球を読み込み中...

次回通過

高度履歴

Altitude vs Time

uPlot chart will show altitude changes over time

軌道要素

1 46117U 20057A 25257.99714018 .00000780 00000-0 71236-4 0 9991
2 46117 53.0577 5.3334 0001446 92.7944 267.3211 15.06398599279865
Epoch: Sep 14, 2025 • Age: 21 hours

現在のステータス

高度 551.3 km
速度 7.59 km/s
衛星直下点 46.59°N, 176.96°E
打ち上げ日 Aug 18, 2020
運用期間 5 years
タイプ internet

技術仕様

分類 Payload
質量 260.00 kg
乾燥質量 248.00 kg
総質量 260.00 kg
長さ 0.20 m
直径 2.80 m
スパン 9.00 m
形状 Box + pan
製造者 SPXS
バスタイプ Starlink
フェーズステータス In Orbit
所有者/国 SPXS/US

大規模コンステレーション

Loading constellations...